RH
86 81 81 82 86 90 90 88 86 85 85 69 49 53 61 50 33 35 60 83 86 87 92 93 92 90 91 95 94 89 85 82 78 76 74 74 72 70 69 68 68 68 66 67 69 71 71 69 69 71 72 74 78 80 84 90 92 94 97 99 100 100 100 100 100 99 100 99 99 99 100 99 100 100 100 99 100 99 97 95 90 85 82 82 77 71 69
87 83 80 81 84 89 92 92 89 87 89 83 76 83 86 72 57 56 69 84 90 92 95 95 92 88 87 91 89 85 83 81 77 76 76 76 75 73 71 68 67 67 66 67 69 70 70 70 70 71 73 74 76 78 82 86 89 92 93 96 99 100 100 100 100 99 99 99 98 99 100 100 100 100 100 99 100 100 97 93 87 81 78 76 74 71 68
87 88 84 79 80 88 95 94 90 87 88 89 87 91 93 87 81 75 77 91 99 98 98 98 93 88 88 90 89 87 85 81 78 78 78 79 80 76 71 68 67 65 64 66 68 69 70 70 70 72 74 74 75 78 82 85 87 90 92 93 95 98 100 100 99 100 100 99 99 99 100 99 98 99 99 99 99 98 96 92 86 81 78 76 74 71 68
87 91 87 86 82 79 85 94 98 95 93 93 91 91 92 87 84 84 86 93 99 98 98 97 94 92 93 94 92 90 87 81 79 80 80 80 81 77 72 68 66 64 63 65 68 69 69 69 69 71 73 73 75 78 82 85 88 89 92 93 93 96 100 100 99 100 100 99 100 100 100 99 96 96 98 98 96 95 94 91 87 83 81 79 76 71 67
89 93 92 94 78 60 68 89 100 99 96 95 93 92 91 85 82 85 87 89 95 98 95 95 98 97 97 98 95 92 89 84 80 79 80 81 81 79 75 71 68 66 64 66 70 70 69 69 69 71 73 73 75 77 80 86 90 91 92 93 92 94 99 100 100 100 99 100 100 99 100 100 97 96 98 97 94 93 92 90 87 84 82 79 75 70 65
85 94 94 85 63 56 75 91 94 94 92 90 93 97 98 92 86 85 86 89 95 95 91 93 99 100 99 98 94 89 85 83 81 80 81 83 83 81 78 73 70 71 70 69 70 70 69 69 68 68 70 71 73 76 79 85 89 90 91 93 94 95 98 99 100 100 99 100 100 99 100 100 99 97 96 95 94 93 91 88 85 83 80 78 74 70 66
75 80 74 63 59 72 91 91 84 84 82 82 91 97 96 92 89 88 90 91 92 94 95 95 97 99 98 96 92 88 83 81 81 81 83 85 85 84 84 79 75 75 75 72 71 70 69 67 64 63 64 66 69 72 76 83 85 84 87 92 96 98 99 99 100 100 100 100 99 100 100 99 98 96 94 93 92 91 89 87 86 84 81 79 77 74 72
68 64 58 63 78 90 94 89 84 82 79 79 85 93 96 92 86 88 95 95 93 95 98 97 96 96 95 94 92 87 83 82 83 82 83 84 86 89 90 85 81 79 77 73 70 68 67 64 61 58 57 58 63 67 72 79 81 80 86 94 98 99 100 99 100 100 100 100 100 100 99 98 97 95 93 92 90 87 84 83 86 87 87 85 83 81 80
68 68 72 82 90 92 94 95 90 86 85 85 83 89 98 94 83 83 93 97 95 96 96 95 94 91 90 95 95 88 83 84 85 84 83 83 87 91 90 85 81 79 75 69 64 63 63 60 58 56 52 51 55 60 67 75 77 77 83 92 98 100 100 99 100 100 99 100 100 100 99 98 98 97 94 91 90 86 81 80 84 88 89 90 88 86 86
67 67 79 87 84 83 90 95 91 85 86 89 85 84 92 94 84 79 85 93 96 97 95 93 94 92 91 97 99 92 85 83 82 83 85 86 90 92 88 82 78 75 72 68 60 56 54 52 53 53 50 47 49 54 63 73 76 76 80 88 97 101 99 99 100 99 100 100 99 100 100 99 99 100 97 93 93 91 86 84 86 90 91 91 92 92 93
67 62 71 81 79 77 85 92 89 83 83 89 87 77 81 90 85 76 80 88 92 93 91 91 94 94 91 96 100 94 86 84 83 84 84 84 86 88 85 81 79 75 70 63 53 46 44 46 50 50 48 48 49 53 63 71 75 77 80 88 98 101 99 100 100 99 99 100 99 100 100 99 99 100 99 98 98 98 95 90 88 90 91 90 93 95 97
68 65 68 74 72 75 87 89 80 76 82 90 82 67 72 86 82 73 78 85 86 88 89 90 93 92 90 94 98 91 84 84 84 83 83 82 82 82 80 78 77 73 66 59 53 50 48 49 48 43 43 47 50 55 64 70 74 78 82 88 95 98 99 100 99 99 99 99 99 100 99 99 98 98 100 100 99 99 99 95 91 88 85 84 88 92 94
67 68 72 73 69 74 86 83 74 77 84 80 71 69 78 85 79 73 77 81 81 82 85 88 93 96 93 91 90 85 80 80 81 80 80 79 78 78 76 73 71 68 63 59 59 56 49 44 39 32 32 41 50 57 64 68 72 79 85 89 92 94 96 97 96 97 97 96 96 96 96 95 94 94 96 98 98 99 98 95 94 92 86 82 85 89 91
69 68 69 69 66 72 83 79 73 79 80 73 74 84 85 79 76 76 78 79 80 82 86 91 95 97 93 86 85 84 81 82 86 85 80 77 76 75 72 68 65 63 60 58 56 50 42 39 37 30 27 36 48 56 61 66 72 80 85 89 90 90 92 94 93 92 94 94 92 90 89 88 88 87 88 89 91 93 92 90 92 93 88 84 85 87 88
78 73 70 67 66 78 90 85 77 80 82 80 85 89 81 72 75 79 79 82 85 87 92 94 93 93 91 85 84 86 86 88 91 89 84 82 79 74 70 68 64 61 61 60 55 47 41 41 41 34 29 36 46 52 56 63 70 78 83 84 86 87 89 90 90 88 89 90 89 86 84 84 83 82 82 81 81 81 81 82 83 84 83 81 80 80 78
72 65 71 76 80 89 93 88 87 90 88 84 81 79 76 74 75 76 80 85 84 84 89 92 90 90 89 84 83 86 88 91 92 90 87 85 81 76 71 68 63 58 59 61 56 47 41 42 45 40 33 35 42 47 50 53 59 69 75 77 80 83 85 87 88 86 85 85 84 82 81 80 79 79 79 78 78 78 77 77 78 79 80 78 74 73 72
82 74 82 91 95 97 94 91 94 93 86 81 76 73 74 75 73 72 77 81 80 78 82 85 84 84 83 83 84 86 89 93 92 90 88 84 80 76 71 65 60 57 57 58 57 53 46 43 45 46 41 38 40 43 42 40 44 53 59 65 74 80 82 85 86 85 83 83 81 80 78 76 76 76 75 73 73 72 72 73 75 76 76 74 71 70 68
94 89 94 97 97 99 96 92 90 88 84 83 78 74 75 74 72 71 72 75 77 76 76 78 80 81 81 83 85 85 86 88 87 85 84 80 74 70 68 64 59 56 55 56 56 57 55 48 46 48 48 46 46 44 39 36 37 40 43 50 60 69 74 79 82 82 82 81 81 79 78 76 75 74 74 73 69 65 63 62 63 64 65 64 64 63 61
86 90 99 99 98 100 97 90 89 88 87 83 79 78 77 74 71 72 72 74 75 75 74 75 77 79 80 82 84 83 83 85 85 82 81 77 71 67 67 64 57 54 57 60 59 60 61 57 51 49 50 51 51 48 44 41 40 37 37 40 46 52 58 61 64 66 67 66 64 62 62 61 60 61 62 63 62 63 63 60 56 53 52 53 56 58 58
87 93 100 99 96 97 93 90 90 90 87 84 80 77 75 73 72 74 74 75 75 75 75 75 77 80 81 82 85 86 84 85 85 82 79 75 70 66 64 59 54 54 57 60 59 59 61 59 54 50 50 52 52 50 48 48 46 43 41 40 42 45 47 47 47 50 51 52 52 52 53 53 53 54 55 55 57 62 66 65 62 57 53 52 54 56 56
98 99 99 98 96 98 97 94 91 87 83 83 81 76 74 75 75 76 77 77 76 78 79 78 79 83 84 83 85 86 86 87 85 82 78 72 67 64 62 57 55 55 55 55 56 57 58 57 53 50 50 51 52 52 51 50 50 49 48 46 46 47 47 47 47 48 50 52 54 57 59 60 62 63 62 60 61 65 66 66 66 65 63 62 61 59 56
99 93 92 91 91 95 99 97 91 84 79 79 81 79 76 77 77 77 80 81 80 81 80 77 78 81 83 83 82 83 86 86 80 74 72 69 66 65 62 57 55 54 53 54 54 55 56 55 53 51 50 50 52 55 55 53 54 54 54 53 52 52 52 52 51 51 52 53 55 58 62 64 66 68 67 64 64 64 65 65 64 63 64 66 67 65 62
83 78 82 85 87 95 100 95 88 83 79 79 83 83 79 78 79 78 78 79 81 83 82 80 80 83 84 84 80 77 76 74 69 67 67 65 64 64 60 56 57 57 56 55 54 54 55 56 54 53 52 51 53 55 56 56 56 56 58 59 60 59 58 57 56 55 55 55 55 57 59 61 62 64 65 66 65 65 64 64 62 61 61 61 64 66 64
78 76 77 79 84 93 95 88 84 84 81 81 85 86 83 82 81 76 73 75 78 79 79 81 83 83 83 82 77 70 67 66 65 65 63 60 59 59 57 57 60 61 59 58 57 55 53 53 54 54 53 53 53 54 54 55 55 55 58 61 63 63 62 59 57 57 57 57 57 56 56 57 58 58 60 63 65 66 66 65 64 63 62 60 62 66 67
80 80 79 79 83 87 85 82 82 82 82 82 86 87 86 84 81 75 73 74 77 77 78 81 82 80 78 76 69 61 60 62 61 60 60 59 59 58 58 60 61 62 61 60 60 58 53 49 50 51 52 53 53 52 52 52 51 52 54 57 60 61 60 57 56 56 57 59 59 57 57 57 57 58 59 62 64 66 66 67 67 66 64 63 64 67 70
79 81 82 85 86 83 80 83 86 84 82 83 85 87 88 86 81 78 77 77 77 76 77 80 80 78 74 68 60 55 57 58 56 55 57 62 63 62 62 63 62 61 59 59 61 61 56 49 47 49 52 54 53 52 52 51 50 51 53 54 56 56 55 53 53 52 55 58 60 60 61 61 59 58 58 61 64 66 67 68 68 67 66 66 67 68 71
77 75 79 90 93 85 80 83 85 83 81 81 83 86 87 83 80 80 79 78 76 76 75 76 76 73 68 59 52 51 55 56 56 56 58 61 64 64 63 63 62 61 59 60 64 64 57 51 49 50 51 53 52 51 51 51 51 51 51 51 51 51 50 50 49 50 52 55 59 64 65 63 60 58 58 61 64 67 69 70 71 71 69 68 68 69 69
74 71 74 83 88 84 78 77 78 78 78 79 79 81 81 80 81 82 80 76 73 72 72 71 67 63 59 53 50 53 56 56 57 59 60 62 64 63 62 62 61 59 58 62 66 64 58 54 54 53 52 51 50 49 49 50 50 51 51 50 50 49 49 48 48 49 50 52 57 62 64 61 59 59 60 63 65 66 68 70 72 73 72 70 70 71 70
77 76 75 74 74 74 74 73 73 73 74 74 73 73 74 75 76 77 75 70 66 63 64 63 59 54 52 51 50 54 56 55 55 59 62 63 63 62 62 61 60 58 59 64 68 66 60 57 56 55 53 52 51 51 51 51 52 52 51 50 49 49 50 50 49 49 50 52 55 58 58 58 61 61 61 63 64 64 66 67 68 71 72 72 72 72 72
78 77 76 73 69 68 68 70 70 68 68 67 65 65 65 65 65 65 63 61 61 61 60 59 56 53 52 50 49 49 48 47 51 56 59 60 61 63 62 59 58 59 63 67 69 68 65 62 60 59 58 56 54 53 53 53 54 53 51 49 50 50 50 50 50 51 51 53 55 57 57 58 61 61 61 62 62 62 63 64 65 68 71 72 73 74 75
74 73 73 72 69 66 66 67 66 64 62 61 59 59 58 56 57 59 58 59 61 61 58 56 56 54 51 48 45 42 40 39 41 42 43 47 56 62 61 57 55 59 64 68 69 69 69 68 66 65 64 61 58 55 54 53 53 52 51 51 52 53 51 49 49 51 53 53 54 56 58 60 61 60 61 62 62 61 61 63 66 69 71 71 73 76 76
73 75 75 73 70 67 65 63 61 60 58 56 54 55 54 52 53 56 57 57 56 55 54 55 54 52 50 47 44 40 35 32 29 26 28 37 50 58 59 57 56 59 63 66 66 68 70 71 70 68 67 65 63 60 57 56 55 53 51 52 54 56 55 51 48 50 52 53 54 56 57 59 61 61 61 62 63 62 61 62 66 70 71 71 73 75 75
75 79 77 73 70 67 65 62 59 56 54 52 52 53 52 51 53 56 55 54 52 50 49 50 51 50 49 47 43 38 32 29 29 29 32 42 54 58 57 56 57 59 62 63 64 65 67 70 71 70 69 68 67 65 62 61 60 56 52 52 54 56 56 54 51 51 53 54 55 57 57 57 58 60 59 61 63 63 61 62 66 69 71 73 73 71 71
72 72 70 66 63 63 63 61 58 56 56 56 56 56 54 53 54 53 51 50 50 48 46 46 50 52 49 45 42 36 31 36 44 45 41 45 55 60 59 57 57 58 60 62 63 63 64 68 71 72 71 70 70 69 65 63 63 62 58 56 56 56 58 59 57 55 56 58 59 60 61 60 59 58 57 59 62 62 60 60 63 66 69 71 70 68 68
67 65 63 59 58 59 59 59 58 57 57 57 57 58 56 53 50 48 47 46 47 47 46 47 49 50 47 43 40 34 32 42 54 52 41 39 49 58 59 57 57 57 58 60 63 63 63 65 69 71 73 72 72 71 69 66 65 65 64 62 61 58 57 60 61 61 61 62 63 64 66 66 64 59 55 56 60 61 60 60 60 62 65 68 68 67 66
63 63 62 60 58 57 58 58 55 54 53 53 55 57 56 49 44 44 44 44 43 43 45 47 48 48 46 40 34 33 39 49 55 52 45 41 46 52 55 55 56 57 58 60 62 62 63 64 65 66 69 72 73 74 72 67 64 64 65 65 66 64 60 60 64 66 66 65 66 67 67 68 68 64 57 54 56 59 61 60 59 59 62 64 64 64 64
60 60 61 63 62 59 57 54 48 46 48 50 51 52 51 48 44 42 41 40 40 41 43 46 46 44 39 31 28 36 47 54 54 54 54 51 48 49 51 52 53 56 57 58 60 61 62 64 64 63 65 69 73 75 72 66 63 66 68 69 70 71 69 67 67 68 67 66 67 68 68 69 71 70 66 61 58 57 57 59 59 59 60 61 61 61 62
59 59 60 61 60 58 54 49 42 39 44 49 52 51 48 46 44 41 38 38 39 39 38 37 34 28 25 26 30 38 45 47 47 49 50 47 43 42 42 42 43 46 48 51 56 60 61 62 63 63 63 65 69 71 71 68 66 68 72 73 72 73 73 71 69 68 64 62 63 67 68 67 66 68 70 70 67 62 57 56 57 57 58 60 60 60 61
57 58 58 57 55 53 52 49 44 41 42 46 50 51 48 45 42 39 37 38 38 33 26 21 18 18 21 27 31 33 35 36 36 36 34 31 29 28 29 30 31 32 33 36 41 47 54 59 62 61 61 63 64 66 68 67 67 69 72 74 75 74 73 72 70 67 63 62 64 67 68 67 65 64 66 68 68 66 64 60 57 56 57 60 60 60 60
56 58 58 56 53 51 51 51 49 46 43 40 40 43 44 42 39 38 37 37 34 26 18 13 14 18 24 28 29 29 30 30 28 26 24 23 22 23 26 29 28 27 28 28 27 29 40 53 59 58 58 60 63 63 63 63 65 68 71 72 73 73 72 70 68 67 66 67 68 67 66 66 66 66 66 65 63 63 64 64 63 62 62 62 62 62 62
55 56 56 55 52 50 50 50 49 48 44 38 34 36 37 37 37 37 34 29 26 24 21 18 15 16 19 23 25 26 26 25 23 22 21 21 23 27 30 31 30 29 30 29 24 23 31 45 56 58 58 60 61 60 59 58 59 61 65 68 70 72 72 70 68 67 67 69 69 67 66 66 65 64 65 66 64 61 61 61 61 61 61 60 59 60 61
56 56 56 56 54 52 50 48 45 44 42 37 33 34 35 36 35 31 24 21 24 28 28 25 23 21 21 22 23 22 22 21 20 21 22 24 27 30 31 31 31 31 31 31 28 23 24 36 50 55 55 55 54 53 54 55 55 55 55 57 60 64 68 70 69 69 69 69 68 67 67 66 63 61 63 65 63 61 60 58 56 57 57 56 55 55 56
55 54 55 57 55 52 48 44 40 39 39 38 35 33 34 34 32 25 20 22 28 30 29 29 30 30 29 29 28 28 28 28 27 28 29 30 30 32 33 33 32 32 31 32 33 27 22 28 41 47 47 46 48 49 51 54 57 57 57 55 54 56 57 59 61 63 65 65 66 66 66 65 62 60 60 61 61 59 57 54 53 53 53 52 52 53 52
55 53 53 53 51 49 47 43 39 37 38 38 35 33 32 31 27 23 22 24 28 30 30 30 31 31 31 32 33 33 34 34 33 33 34 34 35 36 37 37 37 35 33 32 33 30 24 25 32 39 40 42 45 47 49 51 53 55 58 59 59 59 58 57 60 63 64 63 63 66 68 69 66 61 59 61 62 62 59 56 52 50 48 47 47 48 49
54 50 47 46 45 45 43 40 37 35 36 35 34 33 31 27 24 23 24 26 27 29 30 30 30 31 32 33 34 36 37 37 36 37 37 38 39 40 39 38 39 39 37 33 32 30 26 24 28 34 37 40 43 45 47 47 47 47 47 48 50 53 56 59 64 66 65 62 61 63 66 68 68 65 62 62 64 66 66 62 56 52 50 48 46 47 48
51 48 44 40 37 36 34 32 32 33 34 36 38 37 33 28 25 25 26 27 28 28 29 30 31 33 34 36 37 39 39 38 38 39 39 40 41 41 40 40 41 41 38 34 32 29 27 25 26 30 34 37 40 41 41 40 39 38 37 37 38 41 45 51 58 63 64 61 60 61 63 64 64 64 62 62 63 66 67 66 62 58 55 51 47 47 49
48 46 41 35 33 34 35 36 38 39 39 41 42 39 34 30 29 28 28 29 30 30 31 31 32 33 35 36 37 38 39 40 40 39 39 40 40 40 41 41 42 42 40 36 32 30 28 27 26 27 30 33 35 36 36 36 35 35 35 35 35 36 37 41 47 56 62 61 58 58 59 60 59 60 62 64 66 67 68 68 68 65 61 56 50 47 46
42 41 38 35 35 38 40 41 42 43 41 39 36 33 31 31 31 30 30 32 33 33 34 34 34 34 35 36 36 37 39 40 40 39 39 40 40 40 41 40 39 39 38 34 31 30 30 29 27 27 27 29 30 31 31 31 31 33 35 36 38 39 39 37 37 43 52 56 54 53 55 56 57 58 62 67 71 72 71 71 71 68 64 60 55 50 45
38 37 37 39 40 41 42 43 44 42 37 33 31 30 30 32 33 33 33 33 35 35 35 35 35 35 35 36 37 38 39 39 40 40 40 40 40 40 41 40 39 38 37 35 32 30 30 30 30 29 28 27 28 28 28 28 30 31 33 35 39 42 45 43 37 34 37 40 43 47 52 56 58 59 62 66 69 71 70 71 70 67 63 60 57 51 45
43 43 43 44 43 41 40 41 41 38 33 31 31 31 31 33 36 36 34 33 34 35 35 35 36 37 37 38 38 39 39 40 40 40 40 41 41 41 41 41 40 40 40 39 35 32 31 31 31 31 30 29 28 28 28 29 30 31 32 36 41 46 48 49 44 36 31 32 39 48 54 56 57 60 63 64 64 64 64 65 66 64 59 55 52 49 46
44 43 41 39 37 35 33 33 33 32 30 31 31 31 31 33 35 34 33 33 34 35 36 37 38 39 38 37 38 38 38 39 40 41 41 41 41 41 42 42 42 42 42 41 38 35 34 33 33 33 33 33 33 33 33 33 35 37 40 45 48 49 50 50 47 39 33 34 43 52 58 59 59 60 62 62 62 61 61 61 61 60 56 53 51 49 47
37 36 35 36 37 38 36 34 33 32 31 31 31 31 32 33 33 33 33 34 35 35 36 38 39 39 37 37 37 38 39 40 40 40 40 40 39 40 42 43 43 42 42 41 39 38 37 36 37 38 40 41 41 42 42 43 45 47 49 50 50 49 49 49 46 40 35 35 41 49 55 59 61 62 61 60 59 60 60 59 59 58 57 57 56 52 46
Wind_Speed
7 6 4 5 8 8 7 7 4 2 2 0 3 3 3 5 4 3 8 13 11 11 14 14 13 12 11 11 11 11 9 8 8 8 9 10 8 8 8 10 9 9 9 10 11 12 13 14 14 15 14 15 17 18 19 22 24 23 20 17 19 20 20 19 19 18 16 13 11 9 8 7 6 6 6 7 9 12 14 15 15 16 17 17 16 16 15
10 9 6 6 8 9 10 10 8 5 3 3 5 3 1 1 1 3 13 14 6 4 8 11 12 12 11 11 11 11 10 9 8 9 10 9 7 7 8 9 8 8 8 10 11 12 13 14 14 14 14 14 16 18 20 23 24 24 22 19 18 20 22 21 19 18 16 13 11 10 9 7 6 6 5 7 10 11 13 16 15 15 16 17 15 14 14
7 8 7 7 7 10 12 11 10 8 6 6 6 5 3 2 4 8 14 14 6 3 6 11 12 11 11 11 11 11 10 9 9 9 10 9 7 7 7 8 7 8 9 11 12 12 13 13 13 13 13 14 17 19 21 23 24 24 24 22 19 20 22 22 20 17 16 14 10 9 8 5 4 4 3 6 9 10 11 13 14 14 15 16 14 13 13
3 4 5 6 7 11 13 11 10 9 6 5 5 4 2 2 9 15 13 9 6 5 8 11 11 11 12 11 10 10 9 9 9 9 10 8 6 6 7 7 7 8 9 11 11 12 12 13 13 13 13 14 17 20 22 23 24 25 25 24 21 20 21 23 21 18 17 15 11 9 7 4 1 1 3 5 7 8 9 11 12 12 12 13 13 12 12
3 1 1 2 3 6 7 5 6 6 4 4 5 5 4 2 7 11 6 4 7 9 10 11 11 11 11 9 8 9 9 9 10 10 10 8 6 6 6 6 7 8 8 8 9 10 11 11 12 13 14 15 16 18 20 23 24 25 26 26 24 21 20 22 22 19 17 16 14 12 9 7 4 4 6 7 8 8 9 10 11 11 11 12 12 12 12
4 2 2 1 4 5 2 2 4 3 1 5 6 6 6 6 5 7 6 8 11 9 9 11 11 10 10 9 9 8 8 8 9 10 9 7 5 5 5 6 7 7 6 7 9 10 10 12 14 16 18 18 17 18 20 23 25 25 26 27 26 23 21 22 22 20 19 18 17 15 12 9 8 8 8 10 9 10 11 11 11 12 12 12 12 12 11
4 1 1 4 5 2 1 2 1 2 6 9 11 10 8 7 9 12 12 12 11 10 10 11 12 12 12 11 10 9 8 7 8 10 9 6 5 5 5 6 6 7 6 8 11 12 12 14 16 19 20 21 21 21 22 24 24 23 25 27 26 24 23 23 23 20 19 20 19 17 14 11 11 11 11 12 12 11 13 14 14 15 14 13 12 12 11
3 3 2 3 2 0 1 2 3 4 6 8 7 8 8 6 8 12 13 11 10 12 12 11 12 13 13 12 10 9 9 8 8 9 8 6 5 5 5 5 6 7 7 9 11 13 13 15 17 18 20 22 23 23 24 25 22 21 25 28 28 25 23 22 22 20 19 20 19 17 16 14 14 14 14 15 15 14 14 15 15 16 16 15 14 13 13
2 4 3 2 2 2 2 4 3 2 3 3 2 3 3 3 4 9 13 12 11 11 12 12 11 11 11 9 8 8 9 8 8 9 9 7 6 5 5 6 7 8 9 12 14 15 16 18 18 18 20 22 24 24 26 26 21 19 24 27 28 26 22 20 22 21 18 19 19 18 18 17 16 15 15 16 16 16 16 16 15 17 18 18 17 16 15
1 3 4 3 3 3 3 5 3 2 3 3 1 2 2 2 4 8 12 14 12 11 11 11 10 8 6 6 5 6 7 8 9 9 9 7 6 6 8 9 10 11 12 15 16 17 19 19 18 18 20 22 24 25 25 23 20 19 22 24 26 27 23 21 22 22 19 18 18 18 20 19 16 15 16 16 17 18 20 21 20 20 20 20 20 19 19
2 3 3 3 2 1 2 6 4 2 2 2 2 2 2 5 8 10 12 14 13 11 12 10 8 5 4 4 4 5 6 7 8 7 7 7 7 8 10 12 12 12 14 16 18 20 20 19 17 18 20 21 23 25 23 21 20 20 21 22 24 26 25 22 22 22 21 19 18 19 20 20 18 17 17 17 18 19 22 24 25 25 23 24 24 23 22
3 3 3 1 1 1 2 4 3 1 0 1 3 3 2 7 11 11 12 14 13 12 11 8 4 1 1 4 6 7 8 8 7 7 7 7 8 10 12 12 12 14 16 18 20 21 20 19 17 19 21 22 23 23 21 20 21 20 19 20 22 23 24 24 22 21 21 21 20 20 20 20 20 20 19 18 19 20 21 24 27 28 27 27 26 25 23
3 3 2 1 0 1 2 1 1 1 1 3 4 2 2 7 11 10 10 12 12 12 9 5 2 3 5 8 10 9 9 8 7 7 8 9 10 11 12 12 14 16 18 19 20 20 20 20 20 21 23 24 24 22 20 19 20 18 18 20 22 23 25 25 24 23 23 23 22 22 21 22 23 22 21 21 21 21 22 25 27 28 28 28 27 26 24
3 2 2 2 0 1 1 0 2 2 2 3 2 1 4 9 11 10 10 10 10 9 7 7 7 8 11 13 12 9 8 8 7 7 10 10 10 11 13 14 16 18 19 20 20 20 21 22 22 23 25 25 24 23 21 18 17 17 20 22 23 24 25 25 25 24 23 23 23 23 22 22 24 24 23 23 23 23 24 26 27 27 29 28 27 27 26
2 2 2 2 2 2 1 0 1 0 1 1 3 5 7 10 11 11 10 9 8 9 10 11 11 12 13 12 10 8 8 7 7 8 10 10 10 12 14 14 16 19 19 20 21 21 21 22 23 24 25 25 24 23 21 18 17 20 22 23 24 26 26 25 25 24 23 23 24 23 22 22 24 25 24 23 24 24 24 26 27 27 28 27 26 26 26
1 2 2 1 1 2 1 0 2 1 1 1 5 7 8 9 9 9 9 8 8 11 13 13 12 13 13 11 10 9 8 7 8 9 10 10 10 13 14 14 17 19 19 20 21 21 20 21 22 23 24 24 24 23 21 19 21 23 23 24 25 26 27 26 26 25 26 26 25 25 26 26 28 29 28 28 28 27 27 28 28 28 26 26 26 27 25
1 2 3 1 1 1 2 3 3 3 3 3 4 7 9 9 8 8 9 10 11 12 14 14 13 12 12 11 10 9 8 8 9 11 12 12 12 12 13 15 18 19 19 19 19 19 19 19 20 22 24 24 23 22 21 21 22 22 23 25 26 27 27 27 27 26 27 28 28 28 29 29 30 31 31 31 31 30 29 29 29 29 27 26 27 26 24
4 5 5 4 3 4 5 5 5 5 5 5 5 6 9 9 8 8 9 11 12 12 12 13 13 12 12 11 9 8 8 9 11 13 14 14 15 14 13 14 16 18 18 18 18 18 17 17 18 19 21 22 21 20 21 21 22 22 23 24 25 26 26 26 26 26 27 28 28 28 27 27 27 27 28 28 28 28 27 27 27 27 26 25 24 24 22
3 3 4 4 4 5 5 5 6 7 6 6 5 6 8 9 9 9 10 12 12 11 12 14 15 13 12 10 8 7 7 9 11 13 14 14 15 15 14 14 16 18 18 17 17 18 17 17 16 16 17 18 19 19 20 21 21 22 23 24 24 24 24 25 25 25 26 26 26 26 26 26 26 26 26 27 26 26 25 24 24 24 24 23 22 21 19
2 4 6 6 7 7 5 5 5 6 7 8 7 7 9 11 11 12 12 12 12 11 12 14 14 12 10 9 8 7 7 8 10 11 12 12 13 14 15 16 18 19 19 18 18 18 18 17 16 14 14 15 16 17 19 19 20 21 23 24 24 24 24 25 25 25 26 26 26 27 28 27 28 27 27 27 27 26 24 22 21 21 20 20 19 17 15
6 5 7 8 7 7 5 5 5 6 7 10 10 10 11 13 13 13 13 12 12 13 13 13 12 10 9 9 10 8 7 8 8 9 9 10 11 13 15 17 18 19 19 19 19 19 19 18 17 16 14 14 14 15 17 17 18 20 21 23 24 24 24 24 25 25 25 25 26 27 27 27 27 26 25 25 26 25 23 21 20 19 18 18 17 14 11
5 5 8 7 5 4 4 5 7 9 10 12 13 12 13 14 13 13 12 13 13 14 13 13 12 10 9 10 11 10 7 6 6 6 7 8 10 11 14 17 18 19 19 18 18 19 19 18 18 18 16 14 14 14 15 16 17 18 19 21 22 23 23 23 23 23 23 23 23 24 24 24 24 23 23 22 22 22 21 19 18 18 18 18 17 15 11
4 7 9 6 4 5 7 8 9 10 10 12 14 14 14 15 14 14 13 13 12 12 12 13 13 11 9 9 10 8 6 5 6 7 8 9 9 10 14 17 17 17 18 19 19 19 18 18 19 20 18 16 14 13 14 14 15 16 17 18 18 19 20 20 20 21 21 21 20 21 21 21 21 21 20 20 19 18 17 17 17 17 18 18 18 17 16
7 9 8 6 7 9 10 10 11 10 10 12 13 13 12 13 14 15 14 13 12 11 11 12 12 12 11 9 8 7 6 7 9 11 11 11 11 13 15 16 16 17 18 19 19 19 18 17 18 19 19 18 16 14 14 14 14 15 16 16 15 15 16 17 18 18 19 19 18 19 19 20 20 19 19 18 17 16 14 14 15 16 17 17 18 19 19
8 9 8 9 11 12 11 11 11 11 12 13 13 12 12 13 14 16 14 13 13 12 11 10 11 12 10 8 9 10 9 9 12 13 13 12 13 14 15 15 16 17 18 18 18 18 18 17 18 18 18 17 16 15 15 15 15 16 16 16 15 15 15 15 16 17 17 17 17 17 18 18 18 18 18 18 17 15 14 13 14 15 17 18 19 19 20
11 13 13 13 13 12 11 10 10 10 13 15 14 13 14 16 17 17 15 15 17 16 13 10 9 8 7 8 10 12 11 11 13 13 14 14 14 14 15 15 16 17 17 16 16 17 17 18 18 18 17 16 15 15 16 16 16 17 17 18 17 16 15 15 16 16 16 15 15 15 15 16 17 18 19 19 18 17 16 14 15 16 18 19 19 19 19
13 14 14 14 13 10 9 10 11 12 14 16 17 15 16 19 20 19 17 17 17 15 12 9 7 6 7 10 12 13 13 14 14 14 14 15 14 15 15 16 16 17 16 16 15 15 16 17 18 18 17 16 15 15 15 16 17 18 18 18 18 17 16 16 16 16 16 15 14 13 13 15 16 18 18 19 18 18 17 15 14 15 16 18 19 19 19
10 8 7 9 12 12 12 14 16 15 15 16 17 16 17 19 18 14 11 11 12 11 8 7 8 9 10 12 13 14 13 14 14 14 14 13 14 14 15 15 15 16 15 15 15 15 16 17 18 17 16 15 15 15 15 16 16 17 17 17 18 17 17 16 16 16 16 15 14 13 13 14 15 15 16 16 16 16 16 14 13 12 13 14 15 16 17
8 7 7 8 13 17 17 16 15 13 13 15 16 15 14 13 10 7 6 6 8 9 7 7 10 13 13 13 14 13 13 13 13 13 12 12 12 14 14 14 15 14 14 14 14 15 16 17 16 16 15 14 14 14 15 15 16 16 16 16 16 16 16 16 16 15 15 15 14 14 14 13 12 12 13 13 14 14 13 13 13 11 11 12 13 13 16
9 10 10 10 13 16 16 14 12 10 10 12 12 11 11 10 8 6 6 7 8 9 9 10 12 13 12 13 14 14 14 13 13 13 11 10 11 12 13 12 12 11 12 12 13 14 16 16 16 16 14 14 13 13 14 15 15 14 15 15 16 16 16 15 15 14 14 14 13 13 13 12 10 10 11 11 12 13 12 12 12 10 8 10 11 11 13
12 12 12 11 10 12 12 11 10 9 8 9 10 10 9 9 8 7 6 7 8 9 11 12 13 12 12 14 14 14 14 14 13 11 10 9 9 10 10 10 9 9 10 11 11 12 13 14 15 15 14 13 13 13 13 14 14 13 13 14 15 15 15 14 14 13 12 12 12 11 10 10 9 9 10 10 11 12 12 12 12 10 8 8 9 9 11
17 16 14 11 9 9 9 8 9 9 9 9 10 10 9 10 9 7 6 7 9 11 12 12 12 13 14 15 15 14 14 14 12 11 10 9 9 9 9 10 10 10 10 10 10 11 11 12 12 13 12 12 12 11 11 12 11 11 11 12 13 13 13 13 14 14 13 12 11 10 9 9 8 8 9 10 11 12 12 12 12 11 9 9 9 10 12
15 13 12 10 8 9 9 8 8 9 9 9 10 10 10 11 10 9 9 10 12 13 13 12 13 14 16 15 15 15 14 12 11 10 10 10 10 10 10 10 10 9 9 9 9 9 9 9 10 10 10 11 11 10 10 10 9 8 8 9 10 11 12 12 12 13 12 11 11 12 12 11 9 8 9 10 10 11 12 12 12 11 10 9 10 12 12
8 7 8 8 8 8 9 8 7 7 7 7 8 9 10 12 12 12 13 14 13 13 13 14 15 16 16 16 15 13 12 10 10 10 10 10 10 10 10 9 8 7 8 8 8 8 8 8 8 8 8 9 9 9 9 9 9 8 7 6 6 8 10 11 11 10 9 9 10 11 12 12 12 10 9 8 8 9 11 12 11 10 9 8 10 12 12
10 9 10 11 11 11 10 9 8 7 7 6 6 8 11 14 16 15 14 14 13 14 15 16 16 16 17 16 14 11 11 11 11 11 10 10 10 9 9 8 6 6 6 7 7 7 7 7 7 6 6 7 7 7 7 8 8 7 7 6 5 5 7 8 8 8 8 8 8 9 9 10 11 12 10 8 6 7 9 10 10 10 8 8 9 10 11
13 10 9 11 14 15 14 13 13 13 12 10 10 11 13 16 17 16 14 13 15 16 16 17 17 17 17 15 12 12 13 13 13 12 11 11 10 9 8 6 5 5 6 7 6 5 5 5 5 6 5 6 7 8 8 8 8 7 6 5 5 4 4 5 5 6 7 6 6 7 9 10 9 10 10 9 6 5 5 7 8 8 8 8 8 9 9
13 13 11 10 13 15 17 17 18 18 17 15 14 15 15 16 16 15 15 15 16 17 17 17 18 17 15 13 13 14 14 14 13 13 12 11 10 9 8 6 6 5 5 5 5 4 3 3 4 4 5 5 6 7 9 10 10 7 6 6 5 5 4 4 5 5 6 7 7 7 9 10 8 8 9 9 7 6 5 5 6 6 6 6 8 8 7
11 14 15 15 15 16 17 17 18 19 16 13 11 13 15 17 17 17 17 16 16 17 17 17 17 17 16 15 15 14 13 13 12 11 11 10 9 8 6 5 5 5 4 4 4 3 2 2 3 3 4 4 5 6 7 9 9 8 7 6 6 5 5 5 4 5 6 7 8 8 8 9 10 9 8 7 6 6 5 5 5 6 6 5 6 7 7
9 11 14 16 16 16 15 15 15 16 15 13 12 13 16 18 19 19 19 17 17 17 17 17 18 18 17 16 15 13 12 11 10 9 8 7 6 4 3 3 3 4 4 4 4 4 3 2 3 4 4 4 4 5 5 7 7 7 7 6 6 5 5 5 4 4 5 6 6 6 6 8 10 10 9 8 7 6 5 4 5 6 7 7 6 6 7
8 10 13 15 16 16 15 14 12 12 14 16 18 18 19 20 21 21 19 18 17 16 17 18 19 18 17 16 15 13 11 10 8 6 5 4 3 3 3 3 3 3 4 4 4 4 4 3 4 5 5 5 3 3 3 3 4 5 4 4 4 4 4 4 4 4 5 5 5 5 6 8 9 10 10 10 10 9 7 7 7 7 8 8 8 8 8
10 12 14 15 16 16 16 14 12 11 13 16 19 20 21 22 22 21 19 18 17 16 15 16 17 17 15 15 14 12 10 9 7 5 3 2 1 1 2 2 2 3 3 4 4 4 4 6 6 6 6 5 3 2 2 2 2 3 3 2 2 2 2 3 4 4 5 5 5 5 6 8 8 9 10 11 11 11 10 9 9 10 11 11 10 10 10
12 14 14 13 14 15 15 14 14 14 14 15 18 19 20 21 21 20 19 19 17 15 14 13 12 12 12 12 11 10 9 8 6 5 4 3 2 2 1 1 1 2 2 3 4 4 4 6 8 8 7 6 5 3 2 1 0 0 1 1 1 1 2 2 3 4 5 5 5 6 7 7 8 9 10 10 10 12 12 12 11 12 13 13 13 12 12
14 16 14 13 13 15 16 17 18 17 16 15 17 18 19 19 18 18 19 18 16 15 14 13 11 10 10 10 9 9 8 8 7 6 5 5 5 5 5 4 4 3 2 2 2 3 3 4 7 8 8 7 6 5 4 3 3 3 3 3 3 3 3 4 4 5 5 5 6 6 6 7 8 9 10 10 10 11 12 13 13 13 13 14 14 14 13
16 18 17 17 17 17 17 17 18 18 17 16 16 17 18 17 17 17 18 18 17 15 15 14 13 11 10 9 9 8 8 7 7 6 6 5 5 5 5 4 5 6 7 6 5 4 3 4 6 8 8 8 7 6 5 5 5 5 5 5 6 6 6 6 6 6 5 5 5 6 6 6 7 8 10 10 11 11 11 11 12 13 14 14 13 12 10
17 19 21 21 20 18 18 18 19 19 19 18 17 17 17 17 16 17 17 17 17 16 16 15 14 12 11 10 8 7 6 6 5 5 5 4 3 2 3 2 2 3 6 8 8 7 6 6 7 8 8 8 7 7 6 6 6 6 6 7 7 7 7 8 8 7 7 6 6 6 6 6 7 8 9 11 11 11 11 12 12 13 14 15 14 11 9
17 19 21 22 22 21 21 21 20 20 19 17 15 15 16 17 17 16 16 16 17 17 16 15 14 12 11 9 8 7 6 6 6 6 6 5 4 4 3 3 2 2 4 7 9 9 8 7 7 8 8 8 8 7 6 6 6 6 7 7 7 7 7 7 8 8 8 7 6 6 6 7 8 9 11 11 11 11 12 13 13 13 13 14 13 12 10
19 19 21 22 22 21 19 18 17 16 15 14 13 14 16 17 17 17 17 16 16 16 16 15 14 12 10 9 8 7 7 7 7 7 7 7 6 6 5 5 5 4 4 6 8 9 9 8 8 8 8 8 8 7 7 6 6 7 7 8 8 8 8 8 8 8 8 8 7 7 8 9 10 11 11 11 10 10 11 12 13 13 13 13 14 13 12
22 23 23 23 21 19 17 16 15 15 15 16 16 17 18 18 18 18 18 16 15 15 14 13 12 11 10 9 8 8 7 7 6 5 5 5 6 6 5 5 5 5 5 6 7 9 9 9 9 8 8 8 8 8 8 8 8 8 8 9 9 9 9 8 8 8 8 8 8 8 9 9 9 9 9 9 9 10 11 12 13 13 14 14 14 14 14
25 24 23 21 19 19 18 17 15 15 17 19 19 19 18 17 17 17 17 16 15 14 12 10 9 9 9 9 9 8 8 7 6 5 4 4 4 4 4 4 4 4 4 5 6 8 9 9 9 9 8 8 8 8 9 9 9 9 9 9 10 10 10 9 8 8 8 8 8 8 8 8 7 7 8 8 8 9 10 11 12 12 13 15 15 14 14
22 22 21 20 20 21 21 19 18 19 20 20 19 18 17 16 15 14 14 14 13 12 11 10 9 9 9 9 9 8 8 8 8 7 6 5 5 5 6 6 6 5 5 5 6 7 9 9 9 9 8 8 8 8 9 9 9 9 9 10 10 10 11 11 10 9 8 8 7 8 8 8 8 8 8 9 9 9 9 10 11 12 12 13 14 13 13
22 23 25 25 26 26 26 25 24 23 23 21 20 18 17 16 16 15 14 14 14 13 12 12 11 10 9 9 9 8 8 8 8 7 6 5 5 6 7 8 8 8 7 7 6 6 7 7 7 7 7 7 8 8 9 9 8 8 8 8 8 9 10 10 10 9 8 8 8 9 9 10 10 10 10 10 10 10 9 10 10 11 11 11 11 12 13
27 28 28 27 25 25 24 23 22 22 21 21 20 19 18 17 16 15 15 16 17 16 16 14 12 11 10 8 7 6 6 6 6 5 4 4 5 5 6 7 7 7 7 6 6 6 6 6 6 6 6 6 6 6 6 6 6 6 7 7 8 9 9 9 9 9 9 9 9 10 11 11 11 12 12 12 12 12 11 11 11 11 11 11 11 12 13
Wind_Direction
54 46 56 74 83 82 73 67 62 39 357 71 144 138 128 144 161 178 169 169 168 168 164 152 141 137 128 121 118 115 113 109 97 85 75 65 50 41 45 44 37 30 22 12 7 6 9 11 10 8 5 3 6 8 11 17 22 24 20 18 18 18 14 10 5 4 0 348 338 328 305 287 273 260 243 219 208 205 200 194 187 182 182 184 183 182 185
51 35 48 82 101 97 74 58 53 56 60 74 98 107 103 116 67 135 152 156 137 114 138 127 117 119 114 108 106 106 107 101 87 81 75 62 46 40 44 41 33 27 18 11 8 8 10 10 8 6 4 3 6 9 13 19 24 25 23 20 20 20 18 13 8 10 10 358 341 327 310 291 269 254 239 213 202 197 192 187 179 174 175 177 179 182 188
45 24 46 73 98 102 83 61 47 51 71 78 80 105 125 88 89 122 139 141 118 64 105 104 102 104 101 100 103 103 103 95 85 82 75 62 43 35 40 39 31 26 21 15 10 7 8 9 8 5 2 5 11 15 17 21 25 25 26 25 22 21 22 19 13 13 15 12 355 334 330 325 283 251 211 194 197 191 181 176 171 169 168 167 172 181 185
67 17 55 80 95 98 85 60 36 33 51 76 76 92 133 153 130 129 137 148 150 139 116 103 98 98 96 97 101 99 93 88 86 84 78 66 45 32 36 36 31 29 25 17 8 3 5 8 9 7 5 8 14 19 22 25 27 28 29 30 26 22 23 24 21 18 18 20 17 9 14 30 12 201 156 174 195 184 164 160 161 163 161 159 165 172 171
116 328 27 90 127 115 91 43 8 9 33 92 97 74 30 25 133 137 145 146 134 134 126 109 98 96 94 90 90 92 93 92 90 87 84 76 58 41 34 34 35 31 22 15 10 6 5 9 13 15 17 15 14 20 26 30 33 33 31 32 31 26 23 25 26 25 24 27 31 34 47 74 103 124 129 144 162 157 145 147 148 146 148 150 154 156 155
142 254 312 154 173 159 120 336 302 301 37 101 100 75 40 38 85 105 101 107 116 122 123 115 107 101 93 86 83 85 95 102 98 91 86 78 66 51 33 32 33 20 9 14 19 15 12 18 26 31 32 29 25 28 32 36 37 35 32 33 33 28 23 26 28 27 29 33 36 42 56 82 99 105 111 119 126 127 127 130 129 128 132 136 138 140 144
132 203 240 161 166 177 4 357 354 119 116 105 91 71 54 66 98 105 104 110 114 107 103 107 108 106 97 86 80 80 88 100 101 96 90 78 66 52 32 26 19 6 5 19 23 21 21 28 35 37 37 36 35 33 36 40 38 33 32 32 31 28 28 29 29 26 29 34 38 44 54 69 83 91 97 100 105 112 115 115 114 115 119 121 121 122 125
128 145 153 151 144 3 43 95 100 118 131 125 101 69 47 59 109 118 112 110 110 107 106 109 111 110 100 83 73 75 81 85 90 93 91 82 67 48 23 7 360 0 14 31 35 33 34 39 42 40 39 41 40 37 39 41 36 32 35 35 31 30 29 29 29 27 28 34 39 44 52 61 71 80 88 93 97 102 106 106 105 104 105 106 108 108 109
135 124 98 90 125 187 170 140 141 144 136 138 123 89 62 49 117 130 126 122 118 116 117 122 126 122 108 86 68 66 73 78 83 86 86 82 71 56 43 32 23 23 36 50 54 50 48 49 46 42 43 46 45 42 41 39 33 32 36 36 34 34 31 30 34 33 30 36 41 44 49 55 59 66 79 89 95 100 106 109 105 99 98 100 101 103 103
115 120 107 119 162 202 180 146 131 97 111 138 151 126 132 148 149 147 141 134 130 130 130 136 144 143 125 99 77 71 78 83 87 87 81 73 66 59 55 52 46 42 46 55 59 58 56 54 48 47 49 49 49 47 43 36 32 33 36 35 38 41 40 38 42 42 37 39 46 50 52 54 55 59 70 81 89 96 103 106 103 99 99 101 100 99 99
152 140 127 149 177 199 137 138 129 96 122 171 198 203 178 163 160 158 150 142 139 141 142 146 157 161 142 123 115 106 99 92 89 88 80 69 62 59 59 57 51 47 52 58 61 60 56 51 50 53 53 51 51 50 43 37 35 35 35 36 42 47 48 47 49 49 47 45 50 55 57 58 61 63 66 74 81 86 93 99 102 100 97 95 92 91 91
136 119 103 139 178 42 108 135 129 96 79 197 204 209 171 155 161 162 156 149 145 143 144 145 151 155 114 131 135 128 114 101 89 84 78 71 65 61 61 62 60 57 59 61 59 56 54 52 54 58 57 54 53 49 43 40 39 36 35 41 47 51 54 54 54 54 55 55 56 58 61 64 68 70 70 72 75 75 78 88 94 95 93 90 85 82 82
116 110 104 109 72 93 144 150 1 321 225 196 196 201 126 142 153 153 149 146 143 141 141 132 93 62 85 114 127 125 116 106 95 88 85 79 72 67 65 66 68 66 64 63 60 57 58 60 59 58 59 57 54 50 45 40 40 41 45 51 54 56 57 59 60 60 61 62 62 64 65 67 69 69 68 69 71 70 72 79 83 84 87 88 83 79 78
98 91 94 106 145 80 87 4 333 300 216 182 158 105 124 139 143 140 138 137 133 127 115 104 106 104 102 110 117 116 109 104 95 88 86 81 74 71 70 71 73 73 69 65 63 61 63 64 60 59 61 60 58 55 49 42 42 51 57 59 60 61 62 62 63 65 66 67 69 70 69 69 69 67 65 66 68 68 70 74 73 72 78 83 82 78 75
90 89 104 147 163 112 37 261 176 234 294 140 115 114 127 136 137 134 130 124 118 113 107 106 110 109 107 110 111 106 102 98 87 79 80 77 72 72 72 73 76 78 73 67 65 64 66 66 63 62 63 62 61 59 54 50 55 61 62 63 64 65 67 67 66 68 69 70 72 73 72 72 71 70 68 68 68 67 68 69 68 67 71 76 77 74 71
214 128 133 163 135 89 24 321 137 93 26 114 140 136 131 133 136 132 123 114 114 117 117 115 112 111 112 114 111 105 98 88 80 75 72 69 70 73 76 78 81 81 77 70 67 68 70 70 67 66 66 65 63 62 60 61 65 66 66 66 66 66 68 70 70 71 72 72 74 75 75 75 75 74 73 71 70 70 69 70 69 67 66 68 69 68 65
77 74 101 146 165 81 55 53 76 79 72 91 127 135 133 135 137 132 125 122 121 122 121 119 117 117 117 115 110 104 95 85 80 76 71 69 72 76 79 81 82 81 78 73 70 68 71 74 72 70 70 69 66 64 65 66 67 68 68 68 69 70 71 72 73 74 75 76 76 77 78 78 78 78 75 72 69 67 65 66 67 65 62 63 64 63 61
113 66 69 105 114 81 68 70 77 81 83 83 91 112 126 131 128 122 124 127 129 128 125 122 122 123 120 113 105 98 93 88 84 78 73 71 74 79 79 78 79 80 77 74 70 65 66 72 76 75 73 71 69 67 68 68 67 68 69 69 71 72 73 74 75 76 76 77 77 77 77 77 78 78 76 74 72 67 63 62 63 63 62 61 61 61 58
146 85 80 101 102 92 87 87 86 84 84 82 81 98 117 121 115 112 117 123 126 125 124 124 125 123 117 109 103 98 93 89 85 80 73 69 72 75 74 74 78 78 74 68 64 61 59 62 70 75 75 73 72 71 70 69 68 69 71 72 72 72 73 75 76 76 76 76 75 75 74 72 72 71 71 71 69 65 62 61 60 60 59 57 58 59 57
99 105 113 104 87 82 81 87 96 97 94 91 88 95 108 110 107 108 112 117 119 118 120 122 122 118 113 110 109 103 96 94 90 84 77 75 77 79 78 78 78 74 69 65 61 58 56 56 61 68 73 74 74 74 72 69 68 69 72 74 73 72 72 73 74 75 75 76 75 74 73 70 68 66 65 66 65 62 59 58 58 59 57 54 52 50 49
99 106 126 121 96 77 68 77 96 108 111 109 105 104 107 107 106 106 106 106 110 115 118 119 118 114 111 110 110 107 101 99 96 86 81 85 89 88 85 83 79 73 68 65 60 57 57 57 58 61 67 73 74 74 73 71 69 70 73 74 73 72 71 71 71 71 72 73 74 75 74 72 70 67 65 66 66 65 61 58 57 57 57 55 51 45 40
143 163 161 150 122 104 114 115 113 117 120 118 115 114 115 115 113 112 110 106 106 109 114 119 120 117 113 113 115 113 107 101 98 95 98 103 102 99 94 89 83 78 71 66 61 59 58 60 61 63 68 75 75 72 71 69 68 71 73 73 71 71 70 69 68 68 68 69 71 73 75 75 74 71 68 66 65 64 62 58 55 53 51 48 45 41 37
156 162 157 147 104 109 129 130 123 124 125 120 119 121 122 119 116 116 118 119 116 109 107 112 114 114 116 120 118 112 104 103 108 113 117 115 110 107 102 95 86 79 72 66 62 60 60 62 65 66 70 74 75 70 65 64 65 68 71 72 71 69 68 67 66 66 66 67 67 69 71 71 70 69 67 64 62 61 60 57 54 52 48 44 40 39 38
116 128 134 129 113 118 128 129 125 126 125 121 119 118 118 117 117 117 119 121 119 115 112 113 117 121 122 118 111 104 100 105 113 118 117 112 110 110 106 98 87 79 73 68 64 62 63 65 68 68 69 70 69 67 64 62 63 64 67 70 72 71 69 66 64 63 64 65 66 67 67 64 62 59 57 55 55 54 54 54 53 51 49 45 41 38 39
118 113 112 113 115 119 124 122 119 120 120 120 119 116 117 118 118 118 117 112 110 113 114 114 121 127 120 104 101 105 103 104 112 115 108 103 107 111 106 97 88 81 75 69 65 64 65 69 72 73 71 69 66 66 65 65 65 64 65 68 72 72 69 65 61 60 62 64 66 68 67 62 55 50 47 47 47 47 47 51 53 52 49 46 41 38 39
111 112 110 106 108 116 120 116 113 114 116 119 118 114 114 116 114 113 113 114 116 119 120 117 121 123 111 103 107 108 102 101 107 107 99 95 102 109 107 98 91 84 76 70 66 64 68 73 75 75 73 70 68 68 68 69 69 68 67 68 69 67 63 60 57 56 58 62 67 70 67 60 51 45 42 41 42 43 45 47 47 47 45 43 41 39 37
118 123 119 113 114 119 118 117 118 117 113 114 113 108 108 112 112 111 110 113 118 124 129 132 132 120 110 114 115 110 104 103 102 97 91 91 97 107 109 103 95 86 77 71 68 68 73 78 79 78 77 75 72 72 72 72 72 72 71 70 68 64 61 58 56 55 55 58 65 69 65 56 49 45 43 41 40 41 43 42 40 38 37 37 37 36 35
120 116 108 116 126 124 115 112 114 111 107 108 109 107 107 110 110 106 104 108 115 122 130 140 139 128 120 120 117 110 105 102 96 90 89 93 103 112 112 104 96 87 79 75 72 72 77 82 83 82 80 78 75 75 74 74 74 74 72 70 67 64 61 59 59 58 56 57 62 66 63 55 49 46 44 42 39 38 38 37 35 32 29 29 31 31 30
103 89 76 91 111 116 114 110 106 101 102 108 109 109 112 114 112 109 112 118 121 121 123 132 135 132 129 127 122 114 105 99 94 93 95 102 112 117 113 104 97 90 84 80 76 74 79 83 83 81 78 76 75 75 73 73 74 75 74 70 66 62 59 56 56 57 57 58 61 64 62 56 49 45 44 41 38 35 32 30 28 25 23 23 23 22 22
100 100 96 95 104 111 113 112 109 107 111 116 117 119 125 127 125 123 126 127 123 120 124 131 133 133 132 127 122 117 111 105 102 102 103 107 116 121 117 109 102 94 88 84 80 77 79 81 81 80 78 74 73 74 72 71 72 74 75 72 67 62 58 53 52 54 56 58 60 60 59 55 48 43 41 38 35 33 30 26 24 22 19 21 21 19 18
106 104 104 104 105 107 107 109 112 114 118 122 125 129 133 132 127 126 128 126 120 121 129 134 134 134 132 127 123 120 117 113 109 108 109 114 123 127 123 114 106 100 95 91 88 84 82 81 81 79 76 72 73 74 73 69 68 72 77 75 68 62 58 54 51 52 57 61 60 58 55 50 43 37 33 30 30 28 27 26 25 23 24 26 26 24 21
115 111 110 109 103 99 102 111 120 124 131 135 135 138 140 136 132 132 132 128 127 130 134 136 136 137 136 133 130 127 122 117 114 112 113 118 126 132 129 119 111 107 103 99 96 92 88 85 83 80 75 71 70 71 71 70 69 73 79 79 73 65 60 57 56 56 60 61 57 50 44 39 33 27 24 23 24 23 23 25 26 25 29 34 32 28 25
123 124 125 127 126 121 123 130 132 135 141 142 139 140 139 133 131 132 131 130 134 139 141 142 144 145 144 140 137 132 125 117 111 109 111 116 122 130 135 129 119 113 108 103 100 98 95 93 91 84 75 70 67 67 69 71 71 72 76 79 76 69 63 62 61 59 57 55 49 43 39 35 30 24 19 18 19 20 21 24 26 26 29 34 33 30 29
108 112 116 117 117 123 132 137 135 132 131 127 126 130 132 132 134 137 137 137 140 145 147 147 146 147 146 143 140 136 129 120 113 111 115 120 123 129 137 136 127 118 115 111 106 101 97 99 99 91 79 71 68 70 73 72 68 66 63 63 68 70 68 68 65 58 52 50 46 42 39 35 31 29 24 19 17 19 21 22 24 25 26 29 29 28 28
108 109 114 117 119 122 129 132 132 131 127 123 127 133 136 139 141 142 143 144 144 145 146 144 143 145 147 145 142 138 131 126 121 118 122 129 132 133 137 137 130 123 122 121 116 108 100 99 100 96 85 72 65 69 73 68 63 63 59 54 59 71 73 70 66 59 52 47 41 35 32 31 30 30 31 30 24 18 19 21 22 20 19 19 20 22 23
126 121 121 129 135 137 137 137 138 137 134 135 138 140 141 145 147 146 147 147 143 140 141 141 143 147 149 145 140 136 131 126 124 123 126 132 136 136 135 132 127 126 127 126 122 115 106 100 96 94 90 78 69 68 64 52 49 61 72 64 60 67 68 61 58 53 45 38 32 27 26 27 25 25 30 36 36 20 10 13 16 16 12 8 7 10 13
136 134 132 135 139 140 140 142 143 141 138 139 144 147 149 151 152 149 147 145 141 139 141 146 149 151 149 142 137 135 132 130 129 128 127 128 129 128 125 120 119 124 132 138 136 129 120 114 104 96 94 88 79 71 57 44 45 65 85 74 61 63 61 52 51 51 43 35 30 25 22 21 19 15 19 28 34 25 6 357 358 1 1 359 357 356 355
135 137 139 142 142 140 141 144 145 144 142 140 144 151 156 156 153 150 149 148 145 143 146 149 150 147 141 138 137 138 137 136 134 131 128 126 124 124 123 126 131 134 139 151 159 154 137 129 129 123 115 105 92 76 58 46 48 66 81 76 67 63 56 48 47 46 35 26 22 20 19 20 19 13 6 9 17 17 8 353 343 339 335 334 338 341 339
129 132 138 140 139 139 140 143 147 151 152 146 141 147 153 151 149 150 152 152 149 147 145 144 142 141 141 144 146 147 146 143 138 134 131 126 120 116 115 126 144 149 148 153 163 167 158 140 138 146 150 135 109 88 68 54 54 64 74 74 68 62 54 45 38 29 19 14 14 15 17 19 18 15 9 1 358 357 351 343 338 333 325 318 318 319 318
137 140 143 144 144 145 147 150 155 161 159 149 141 142 147 148 149 153 156 156 153 148 144 142 144 148 153 155 154 153 153 151 147 143 136 122 95 77 75 85 110 136 147 153 155 162 173 171 161 158 160 153 128 102 83 63 58 64 69 66 61 56 47 36 25 12 5 3 5 5 6 9 11 12 10 5 0 356 345 329 322 322 320 317 316 311 304
152 154 154 153 154 155 156 158 158 157 153 148 145 145 149 153 155 158 160 158 155 152 150 150 152 156 160 160 159 160 162 163 164 166 163 152 106 52 53 67 95 117 133 143 147 152 166 177 179 176 173 172 167 149 117 86 68 65 62 52 47 41 25 18 13 5 357 354 351 350 355 357 358 0 2 0 357 354 348 336 325 322 321 321 321 318 311
156 159 159 158 159 160 161 158 154 150 149 152 153 153 156 160 162 162 162 161 160 160 163 165 163 161 161 162 166 170 176 181 189 199 210 219 238 265 280 219 151 132 125 136 142 143 151 171 184 189 188 185 188 189 181 175 186 21 11 5 358 342 330 332 338 339 339 337 333 332 338 343 345 347 349 348 346 345 343 336 329 325 323 322 322 319 315
162 162 160 158 161 164 162 158 155 154 157 162 163 163 165 169 169 167 166 167 169 172 178 183 183 179 177 178 183 189 196 202 208 218 232 245 253 257 258 248 229 224 228 202 170 159 157 172 185 191 190 190 195 206 222 238 256 272 279 280 286 296 298 301 308 316 321 319 316 317 323 331 336 338 338 335 334 337 338 338 336 335 332 328 322 315 311
163 163 163 163 164 165 161 157 157 161 166 171 173 173 174 176 177 175 174 175 179 185 190 195 198 198 198 200 202 204 208 213 219 227 239 253 260 258 253 247 236 228 228 227 222 214 203 196 194 195 196 200 210 226 244 259 270 279 281 282 283 286 287 288 291 297 306 310 307 305 309 314 321 328 331 331 329 328 331 338 345 347 346 343 336 327 328
163 164 163 162 162 162 161 161 165 171 176 178 180 182 184 185 186 185 184 186 191 196 200 203 206 208 209 211 213 215 217 221 226 229 233 243 253 236 207 197 200 210 215 218 219 218 214 207 203 202 204 211 222 235 250 263 277 287 292 293 292 288 285 282 281 283 291 299 298 297 302 304 305 310 318 324 325 323 322 327 335 343 348 350 350 351 357
163 163 161 161 165 170 171 172 175 179 180 180 182 189 195 196 196 196 197 199 202 206 209 210 211 212 212 214 220 226 230 231 232 230 233 241 248 240 229 239 267 267 231 218 214 214 214 211 207 207 210 217 228 240 253 268 286 298 303 304 303 298 292 285 278 275 280 286 289 289 293 298 300 302 304 308 313 316 317 320 325 332 340 345 346 346 345
162 162 165 169 173 175 176 175 175 174 174 176 184 195 202 205 206 208 209 211 213 215 217 219 219 219 220 224 230 234 236 237 237 237 241 247 250 250 251 257 264 268 258 234 218 214 215 217 216 216 217 222 231 244 259 274 288 299 304 307 308 307 304 298 287 277 272 273 278 282 288 296 305 309 306 301 299 304 311 314 316 320 327 335 339 339 336
168 169 173 176 177 177 176 174 171 171 177 185 194 200 204 207 211 214 217 220 223 224 224 224 225 223 222 226 229 229 228 231 234 234 232 235 239 243 247 250 253 260 262 248 227 217 217 222 225 226 227 231 238 248 260 272 283 293 301 305 305 305 303 301 296 286 275 269 271 279 288 299 311 318 315 305 296 295 300 306 309 312 316 320 324 327 330
175 175 176 176 176 177 177 175 176 182 190 196 201 205 207 207 210 214 218 220 222 223 222 219 215 212 213 219 226 227 225 227 230 226 217 216 224 230 232 233 238 248 257 253 237 225 221 224 229 233 236 241 248 256 264 273 282 290 297 301 302 302 300 296 291 286 279 271 268 273 282 291 302 312 316 313 305 298 294 296 299 303 306 309 311 314 322
173 172 173 176 179 181 183 184 188 194 198 200 203 206 207 204 204 208 211 211 212 214 213 209 207 209 213 221 230 235 235 233 231 230 231 235 240 239 236 234 233 234 241 247 244 235 230 231 235 240 243 249 258 265 271 277 283 289 292 295 299 303 304 297 288 282 278 271 264 263 268 274 281 293 305 311 313 310 302 295 293 297 302 306 307 308 311
174 176 180 185 188 191 193 196 199 201 201 201 202 202 202 201 204 206 205 204 205 208 209 209 210 213 220 228 238 243 241 234 229 229 236 250 259 259 252 244 239 237 238 241 242 242 240 239 241 245 251 258 265 270 275 279 283 288 292 298 306 313 313 306 292 281 275 268 260 259 262 266 272 282 292 299 303 304 301 296 295 296 299 301 302 301 301
182 185 187 189 190 193 195 199 203 204 203 201 200 199 200 202 207 210 209 208 209 210 209 209 210 214 220 229 234 230 219 215 216 224 242 267 282 278 265 251 241 237 238 238 240 244 247 248 250 257 264 268 273 277 279 282 286 289 296 305 315 320 321 315 302 289 280 272 265 263 265 268 271 278 287 293 294 291 287 283 284 286 289 292 294 295 295